This is the latest recevied weather packets stored in our database for station/object KY4OP-13. If no packets are shown the sender has not sent any weather packets the latest 10 day(s).
| Time | Temp. | Humidity | Pressure | Rain* | Wind** | Luminosity | Snow |
|---|---|---|---|---|---|---|---|
| 1777762811 | 13.33° C | 42% | 1014 hPa | 0 mm | - | - | - |
| 1777762506 | 13.33° C | 40% | 1013.8 hPa | 0 mm | - | - | - |
| 1777762204 | 13.33° C | 40% | 1013.9 hPa | 0 mm | - | - | - |
| 1777761899 | 13.33° C | 40% | 1013.8 hPa | 0 mm | - | - | - |
| 1777761596 | 13.89° C | 40% | 1013.8 hPa | 0 mm | - | - | - |
| 1777761294 | 14.44° C | 40% | 1013.8 hPa | 0 mm | - | - | - |
| 1777760992 | 14.44° C | 41% | 1013.9 hPa | 0 mm | - | - | - |
| 1777760690 | 13.89° C | 42% | 1013.9 hPa | 0 mm | - | - | - |
| 1777760385 | 13.33° C | 42% | 1013.8 hPa | 0 mm | - | - | - |
| 1777760081 | 13.89° C | 43% | 1013.9 hPa | 0 mm | - | - | - |
| 1777759779 | 13.89° C | 43% | 1013.7 hPa | 0 mm | - | - | - |
| 1777759474 | 13.89° C | 46% | 1013.7 hPa | 0 mm | - | - | - |
| 1777759171 | 13.89° C | 46% | 1013.9 hPa | 0 mm | - | - | - |
| 1777758869 | 14.44° C | 48% | 1013.7 hPa | 0 mm | - | - | - |
| 1777758566 | 14.44° C | 45% | 1013.7 hPa | 0 mm | - | - | - |
| 1777758262 | 14.44° C | 47% | 1013.6 hPa | 0 mm | - | - | - |
| 1777757960 | 14.44° C | 42% | 1013.6 hPa | 0 mm | - | - | - |
| 1777757656 | 15.56° C | 44% | 1013.6 hPa | 0 mm | - | - | - |
| 1777757355 | 15° C | 45% | 1013.7 hPa | 0 mm | - | - | - |
| 1777757054 | 15° C | 42% | 1013.8 hPa | 0 mm | - | - | - |
| 1777756750 | 14.44° C | 43% | 1013.8 hPa | 0 mm | - | - | - |
| 1777756445 | 13.89° C | 45% | 1013.8 hPa | 0 mm | - | - | - |
| 1777756143 | 13.89° C | 45% | 1013.9 hPa | 0 mm | - | - | - |
| 1777755840 | 13.89° C | 44% | 1013.7 hPa | 0 mm | - | - | - |
| 1777755537 | 13.89° C | 45% | 1013.7 hPa | 0 mm | - | - | - |
* Rain latest hour (hover to see other rain measurements)
** Current wind speed in m/s (hover to see current wind gust speed)